Hourly Data Report for September 05, 2017

All times are specified in Local Standard Time (LST). Add 1 hour to adjust for Daylight Saving Time where and when it is observed.

GRISE FIORD CLIMATE
NUNAVUT

76°25'22.040" N
82°54'08.020" W
44.50 m
2402351
71971
NGC

Download Data

Hourly Data (September 2017)
Hourly Data Report for September 5, 2017
Temp Definition
°C
Dew Point Temp Definition
°C
Rel Hum Definition
%
Wind Dir Definition
10's deg

Wind Spd Definition
km/h
Visibility Definition
km
Stn Press Definition
kPa
Hmdx Definition


Wind Chill Definition


Weather Definition


TIME
00:00 -2.9 -11.1 53 4 30   100.83   -10 LegendNANA
01:00 -3.1 -10.6 56 3 21   100.84   -9 LegendNANA
02:00 -2.9 -10.3 57 2 20   100.87   -9 LegendNANA
03:00 -3.1 -9.4 62 35 14   100.90   -8 LegendNANA
04:00 -3.0 -8.5 66 34 11   100.92   -7 LegendNANA
05:00 -3.0 -9.1 63 27 3   100.91   -4 LegendNANA
06:00 -2.9 -9.1 62 32 10   100.91   -7 LegendNANA
07:00 -2.7 -8.7 63 31 13   100.91   -7 LegendNANA
08:00 -2.6 -8.8 62 29 13   100.89   -7 LegendNANA
09:00 -2.4 -8.4 63 27 7   100.86   -5 LegendNANA
10:00 -2.6 -7.7 68 28 8   100.86   -6 LegendNANA
11:00 -3.4 -6.4 80 4 2   100.86   -4 LegendNANA
12:00 -2.8 -7.4 71 17 3   100.86   -4 LegendNANA
13:00 -2.9 -6.7 75 25 5   100.85   -5 LegendNANA
14:00 -2.9 -5.6 82 17 2   100.85   -4 LegendNANA
15:00 -2.6 -7.0 72 11 3   100.82   -4 LegendNANA
16:00 -2.9 -6.3 77 21 3   100.82   -4 LegendNANA
17:00 -2.2 -5.4 79 22 5   100.79   -4 LegendNANA
18:00 -2.2 -6.8 71 19 2   100.78   -3 LegendNANA
19:00 -3.2 -5.6 84 24 28   100.77   -10 LegendNANA
20:00 -3.8 -6.2 83 23 22   100.78   -10 LegendNANA
21:00 -3.8 -6.3 82 24 26   100.72   -11 LegendNANA
22:00 -3.9 -6.2 84 23 21   100.71   -10 LegendNANA
23:00 -4.2 -5.8 89 23 16   100.67   -10 LegendNANA

Notes on Data Quality.

Legend

  • E = Estimated
  • M = Missing
  • NA = Not Available
  • ‡ = Partner data that is not subject to review by the National Climate Archives
Date modified: